Regional Weather Roundup
Issued by NWS

Home | Current Version | Previous Version | Text Only | Print | Product List | Glossary On
Versions: 1 2 3 4 5 6 7 8 9 10 11 12 13 14 15 16 17 18 19 20 21 22 23 24 25 26 27 28 29 30 31 32 33 34 35 36 37 38 39 40 41 42 43 44 45 46 47 48 49 50
000
ASUS42 KKEY 260910
RWRKEY

FLORIDA REGIONAL WEATHER ROUNDUP FOR THE FLORIDA KEYS
NATIONAL WEATHER SERVICE KEY WEST FLORIDA
500 AM EDT SUN APR 26 2015

...SOUTH FLORIDA AND THE KEYS...

CITY           SKY/WX    TMP DP  RH WIND       PRES   REMARKS
FORT MYERS     CLEAR     77  74  90 SW5       29.80F
SW REGIONAL AP CLEAR     75  72  90 SW8       29.81F
NAPLES         CLEAR     80  73  79 SW10      29.83S
MIAMI          PTCLDY    77  72  84 SW6       29.84S
WEST KENDALL   CLEAR     71  70  96 SW5       29.85R
HOMESTEAD      CLEAR     74  73  95 SW5       29.84R
MARATHON       CLEAR     81  75  82 S10       29.82F
BOCA CHICA NAS CLEAR     82  73  74 S15       29.83F
KEY WEST INTL  CLEAR     83  74  74 S14       29.84F

...INTERNATIONAL WEATHER...

CITY           SKY/WX    TMP DP  RH WIND       PRES   REMARKS
NASSAU BAHAMAS PTCLDY    79  77  94 S5        29.85S
CANCUN MEXICO  CLEAR     79  77  94 SE10      29.84F
COZUMEL MEXICO PTCLDY    72  72 100 SE5       29.84F

ADJACENT COASTAL WATERS...

STATION/POSITION TIME  SKY/WX   TEMP    WIND        PRES    WAVE
                                AIR SEA DIR/SP/G            HT/PER
                 (UTC)          (F)     (DEG/KT/KT) (MB)    (FT/S)
PULASKI SHOAL LI 0800            81     200/ 10/ 11 1010.3F
SAND KEY         0850            81     190/  9/ 11 1010.7R
SOMBRERO KEY     0900            82     180/ 14/ 15 1010.6F
LONG KEY         0800            82 87  220/ 14/ 16 1011.6F
MOLASSES REEF    0900            81 81  240/ 15/ 15 1010.1F
FOWEY ROCKS      NOT AVBL

$$


USA.gov is the U.S. government's official web portal to all federal, state and local government web resources and services.